Home   Weather   Split   Past weeks

Flag for Croatia Past Weather in Split, Croatia — Yesterday and Last 2 Weeks

Now
56 °F

Overcast.


Feels Like: 56 °F
Forecast: 55 / 59 °F
Wind: No wind

Location: Split/Marjan

Current Time: Feb 27, 2017 at 12:16:20 pm

Latest Report: Feb 27, 2017 at 11:00 am


Visibility: 13 mi

Pressure: 30.08 "Hg

Humidity: 82%

Dew Point: 51 °F

Location of SplitLocation

Past Weather in Split — Graph

°F

Split Temperature Yesterday

Maximum temperature yesterday: 55 °F (at 11:00 am)
Minimum temperature yesterday: 49 °F (at 4:00 am)
Average temperature yesterday: 52 °F

High & Low Weather Summary for the Past Weeks

 TemperatureHumidityPressure
High57 °F (Feb 22, 2:00 pm)93% (Feb 25, 1:00 am)30.55 "Hg (Feb 25, 1:00 am)
Low41 °F (Feb 20, 7:00 am)26% (Feb 15, 6:00 am)29.80 "Hg (Feb 25, 1:00 am)
Average50 °F63%30.21 "Hg
* Reported Feb 12 10:00 am — Feb 27 10:00 am, Split, Weather by CustomWeather, © 2017

Note: Actual official high and low records may vary slightly from our data, if they occured in-between our weather recording intervals... More about our weather records

Advertising

Split Weather History for the Previous 24 Hours

Scroll right to see more
 ConditionsComfort  
Time TempWeatherWind HumidityBarometerVisibility
10:00 am
Mon, Feb 27
56 °FOvercast.1 mph85%30.08 "Hg9 mi
9:00 am54 °FOvercast.No wind86%30.08 "Hg9 mi
8:00 am53 °FOvercast.No wind88%30.08 "Hg9 mi
7:00 am54 °FOvercast.1 mph82%30.07 "Hg16 mi
6:00 am54 °FOvercast.1 mph80%30.06 "Hg12 mi
5:00 am54 °FPassing clouds.1 mph80%30.07 "Hg12 mi
4:00 am53 °FOvercast.1 mph84%30.07 "Hg12 mi
1:00 am53 °FPassing clouds.1 mph89%30.09 "Hg12 mi
10:00 pm
Sun, Feb 26
54 °FOvercast.1 mph80%30.10 "Hg12 mi
9:00 pm54 °FOvercast.1 mph78%30.10 "Hg12 mi
8:00 pm54 °FOvercast.No wind79%30.10 "Hg12 mi
7:00 pm54 °FOvercast.No wind75%30.09 "Hg12 mi
4:00 pm55 °FOvercast.1 mph77%30.07 "Hg16 mi
3:00 pm54 °FOvercast.1 mph77%30.08 "Hg12 mi
2:00 pm54 °FOvercast.1 mph77%30.09 "Hg16 mi
1:00 pm51 °FOvercast.1 mph91%30.10 "Hg16 mi
12:00 pm55 °FOvercast.1 mph72%30.11 "Hg16 mi
Weather by CustomWeather, © 2017

See weather overviewHow to use our weather pages